sat.trackr.live / text

‹ back to catalog

STARLINK-35459

NORAD 65856 · 2025-223C

PAYLOAD ACTIVE UNKNOWN

§ Identity

Operator
Country
US
Launch date
2025-10-03
Launch site
AFWTR
Launch vehicle
Mass (kg)
RCS (m²)

Purposes: comms

External: N2YO · Heavens-Above · Gunter

§ Orbital elements

Epoch: 2026-09-20T22:23:20.858784Z

Period
93.85 min
Inclination
53.1526°
Eccentricity
0.0001108
Mean motion
15.34393739 rev/d
Perigee alt
462.0 km
Apogee alt
463.5 km
Semi-major
6,840.9 km
B*
3.9421e-4
RAAN
103.3693°
Arg perigee
101.5208°
Mean anomaly
258.5919°
Rev number
5,415

§ Raw data

STARLINK-354591 65856U 25223C   26263.93288031  .00012963  00000+0  39421-3 0  99992 65856  53.1526 103.3693 0001108 101.5208 258.5919 15.34393739 54157

JSON: /api/v1/satellites/65856 · /tle

For live sub-satellite position, see the globe view (requires WebGL).

§ Visibility from observer

Set your observer location to see the next 7 days of passes ≥ 10°. The values pass through the URL so the page stays shareable.

No JS? Fill the form by hand. The geolocation button needs JavaScript.